Regional Weather Roundup
Issued by NWS

Home | Current Version | Previous Version | Text Only | Print | Product List | Glossary Off
Versions: 1 2 3 4 5 6 7 8 9 10 11 12 13 14 15 16 17 18 19 20 21 22 23 24 25 26 27

000
ASUS45 KPSR 312110
RWRAZ

ARIZONA HOURLY REGIONAL WEATHER ROUNDUP
NATIONAL WEATHER SERVICE PHOENIX AZ
200 PM MST TUE MAY 31 2016

NOTE: FAIR INDICATES FEW OR NO CLOUDS BELOW 12,000 FEET WITH NO
SIGNIFICANT WEATHER AND/OR OBSTRUCTIONS TO VISIBILITY.

AZZ001>003-036-312200-
NORTHWEST ARIZONA

CITY           SKY/WX    TMP DP  RH WIND       PRES   REMARKS
BULLHEAD CITY  MOSUNNY  102  32   8 NW17      29.69F
KINGMAN        MOSUNNY   91  30  11 N17G23    29.88F
$$

AZZ004>008-015-016-018-312200-
NORTH CENTRAL ARIZONA

CITY           SKY/WX    TMP DP  RH WIND       PRES   REMARKS
GRAND CANYON   MOSUNNY   77  25  14 W8        30.07F
WILLIAMS       MOSUNNY   73  25  16 W10G18    30.15F
PRESCOTT       MOSUNNY   80  16   9 NW10      29.98F
FLAGSTAFF      MOSUNNY   72  21  14 SW8       30.09F
PAYSON         PTSUNNY   81  18   9 NW10      29.98F
PAGE           SUNNY     86  27  11 N9        29.92F
$$

AZZ009>014-017-312200-
NORTHEAST ARIZONA

CITY           SKY/WX    TMP DP  RH WIND       PRES   REMARKS
WINSLOW        SUNNY     84  17   8 S5        29.94F
SAINT JOHNS    MOSUNNY   79  21  11 SE3       29.96F
WINDOW ROCK    MOSUNNY   79  25  13 NW14G29   30.05F
SHOW LOW       CLOUDY    68  23  18 E6        30.07S
$$

AZZ023-312200-
GREATER PHOENIX AREA

CITY           SKY/WX    TMP DP  RH WIND       PRES   REMARKS
PHOENIX        PTSUNNY   95  25   8 NW12      29.72F
BUCKEYE        SUNNY     93  23   8 W5        29.76F
GLENDALE       MOSUNNY   97  18   5 S12G17    29.75F
LUKE AFB       SUNNY     96  19   6 SW10G21   29.73F
DEER VALLEY    SUNNY     94  22   7 W14       29.75F
SCOTTSDALE     SUNNY     95  23   7 W13       29.77F
MESA-FALCON    MOSUNNY  N/A N/A N/A MISG      29.73F
MESA-GATEWAY   MOSUNNY   93  25   8 W10G17    29.76F
CHANDLER       MOSUNNY   95  23   7 SW14      29.74F
$$

AZZ027-028-312200-
SOUTHWEST MARICOPA COUNTY AND PINAL COUNTY

CITY           SKY/WX    TMP DP  RH WIND       PRES   REMARKS
CASA GRANDE    SUNNY     93  30  10 SW10G20   29.77F
GILA BEND      MOSUNNY   96  22   7 VRB5      29.73F
$$

AZZ503-504-507>509-312200-
SOUTHEAST ARIZONA

CITY           SKY/WX    TMP DP  RH WIND       PRES   REMARKS
TUCSON         SUNNY     91  20   7 VRB5      29.83F
DAVIS-MONTHAN  MOSUNNY   90  19   7 VRB6      29.81F
RYAN FIELD     SUNNY     90  21   8 SE3       29.82F
NOGALES        SUNNY     86  17   8 S12G21    29.90F
SIERRA VISTA   MOSUNNY   82  22  11 SE9G22    29.94F
DOUGLAS        MOSUNNY   86  26  11 SW14G25   29.89F
SAFFORD        MOSUNNY   90  23   9 MISG      29.80F
$$

AZZ020-021-025-026-031-312200-
SOUTHWEST ARIZONA

CITY           SKY/WX    TMP DP  RH WIND       PRES   REMARKS
YUMA           SUNNY     98  42  14 S10       29.71F
$$

CAZ031-033-041-043-047-048-061-312200-
SOUTHERN CALIFORNIA

CITY           SKY/WX    TMP DP  RH WIND       PRES   REMARKS
DOWNTOWN L.A.  SUNNY     74  57  55 VRB3      29.86F
L.A. AIRPORT   MOSUNNY   68  57  68 W12       29.88S
SAN DIEGO      CLOUDY    66  57  72 SW8       29.90F
BURBANK        SUNNY     74  57  55 S10       29.85F HAZE
ONTARIO        MOSUNNY   77  55  46 W13       29.85F
RIVERSIDE      MOSUNNY   79  55  43 W9        29.84F
PALM SPRINGS   MOSUNNY   98  49  18 SE7       29.72F
EL CENTRO NAS  MOSUNNY   99  46  16 E10       29.71F
IMPERIAL       SUNNY    101  43  13 VRB6      29.69F
BLYTHE         SUNNY     98  36  11 CALM      29.71F
NEEDLES        SUNNY    103  31   8 VRB3      29.71F
$$

NVZ020-UTZ003-312200-
SOUTHERN NEVADA-UTAH

CITY           SKY/WX    TMP DP  RH WIND       PRES   REMARKS
LAS VEGAS      MOSUNNY   95  31  10 VRB3      29.78F
SALT LAKE CITY MOSUNNY   75  31  19 N10G20    30.06F
$$

NMZ009-TXZ055-312200-
NEW MEXICO-WEST TEXAS

CITY           SKY/WX    TMP DP  RH WIND       PRES   REMARKS
ALBUQUERQUE    CLOUDY    74  32  21 SE17      29.97F
EL PASO        PTSUNNY   84  41  21 VRB5G16   29.87F
$$


........................KEY........................
SKY/WX - SKY CONDITION/WEATHER
TMP    - TEMPERATURE IN FAHRENHEIT
DP     - DEW POINT IN FAHRENHEIT
RH     - RELATIVE HUMIDITY IN PERCENT
WIND   - DIRECTION AND SPEED IN MILES PER HOUR (MPH)
VRB    - VARIABLE WIND DIRECTION
PRES   - MEAN SEA LEVEL PRESSURE IN INCHES OF MERCURY
         F - FALLING PRESSURE   R - RISING PRESSURE
         S - STEADY PRESSURE
VSB    - VISIBILITY IN MILES
HX     - HEAT INDEX IN FAHRENHEIT
WCI    - WIND CHILL INDEX IN FAHRENHEIT
TC     - TEMPERATURE IN CELSIUS WHICH IS ALSO KNOWN AS
         TEMPERATURE IN CENTIGRADE
AFB    - AIR FORCE BASE
         LUKE AFB IS LUKE AIR FORCE BASE
         DAVIS-MONTHAN IS DAVIS-MONTHAN AIR FORCE BASE
NAS    - NAVAL AIR STATION
         EL CENTRO NAS IS EL CENTRO NAVAL AIR STATION
N/A    - NOT AVAILABLE





USA.gov is the U.S. government's official web portal to all federal, state and local government web resources and services.